QPF
0.00 0.00 0.00 0.00 0.00 0.00 0.00 0.00 0.00 0.00 0.00 0.00 0.00 0.00 0.00 0.00 0.00 0.00 0.00 0.00 0.00 0.00 0.00 0.00 0.00 0.00 0.00 0.00 0.00 0.01 0.00 0.00 0.00 0.00 0.00 0.01 0.01 0.00 0.01 0.04 0.02 0.02 0.08
0.00 0.00 0.00 0.00 0.00 0.00 0.00 0.00 0.00 0.00 0.00 0.00 0.00 0.00 0.00 0.00 0.00 0.00 0.00 0.00 0.01 0.01 0.00 0.00 0.00 0.00 0.00 0.00 0.00 0.00 0.00 0.00 0.00 0.00 0.00 0.02 0.03 0.01 0.08 0.09 0.06 0.04 0.05
0.00 0.00 0.00 0.00 0.00 0.00 0.00 0.00 0.00 0.00 0.00 0.00 0.00 0.00 0.00 0.00 0.00 0.00 0.00 0.00 0.01 0.02 0.03 0.00 0.00 0.00 0.00 0.00 0.00 0.00 0.02 0.01 0.04 0.01 0.00 0.02 0.02 0.04 0.12 0.13 0.18 0.09 0.09
0.00 0.00 0.00 0.00 0.00 0.00 0.00 0.00 0.00 0.00 0.00 0.00 0.00 0.00 0.00 0.00 0.00 0.00 0.00 0.00 0.00 0.01 0.03 0.01 0.00 0.00 0.00 0.00 0.00 0.05 0.08 0.08 0.02 0.00 0.00 0.00 0.00 0.04 0.08 0.09 0.13 0.10 0.10
0.00 0.00 0.00 0.00 0.00 0.00 0.00 0.00 0.00 0.00 0.00 0.00 0.00 0.00 0.00 0.00 0.00 0.00 0.00 0.00 0.00 0.00 0.01 0.00 0.01 0.00 0.00 0.00 0.00 0.04 0.05 0.03 0.00 0.00 0.00 0.00 0.01 0.00 0.02 0.06 0.12 0.05 0.07
0.00 0.00 0.01 0.03 0.02 0.00 0.00 0.00 0.00 0.00 0.00 0.00 0.00 0.00 0.00 0.00 0.00 0.00 0.00 0.00 0.00 0.00 0.00 0.00 0.01 0.01 0.00 0.00 0.04 0.05 0.03 0.00 0.00 0.00 0.00 0.00 0.00 0.00 0.00 0.03 0.08 0.06 0.02
0.00 0.00 0.00 0.00 0.03 0.02 0.00 0.00 0.00 0.00 0.00 0.00 0.00 0.00 0.00 0.00 0.00 0.00 0.00 0.00 0.00 0.00 0.00 0.01 0.01 0.01 0.00 0.00 0.07 0.02 0.00 0.00 0.03 0.01 0.00 0.00 0.02 0.05 0.00 0.01 0.05 0.05 0.05
0.00 0.00 0.00 0.00 0.00 0.00 0.00 0.00 0.00 0.00 0.00 0.00 0.00 0.00 0.00 0.00 0.00 0.00 0.00 0.00 0.00 0.00 0.00 0.00 0.00 0.00 0.00 0.01 0.08 0.02 0.00 0.00 0.03 0.00 0.00 0.00 0.00 0.11 0.02 0.05 0.17 0.10 0.10
0.00 0.00 0.00 0.00 0.00 0.00 0.00 0.00 0.00 0.00 0.00 0.00 0.00 0.00 0.00 0.00 0.00 0.00 0.00 0.00 0.00 0.00 0.00 0.00 0.00 0.00 0.00 0.00 0.08 0.03 0.04 0.01 0.02 0.00 0.00 0.00 0.00 0.04 0.15 0.15 0.20 0.09 0.07
0.00 0.00 0.00 0.00 0.00 0.00 0.00 0.00 0.00 0.00 0.00 0.00 0.00 0.00 0.00 0.00 0.00 0.00 0.00 0.00 0.00 0.00 0.00 0.00 0.00 0.00 0.00 0.00 0.03 0.04 0.19 0.03 0.01 0.00 0.00 0.00 0.04 0.07 0.07 0.18 0.11 0.08 0.05
0.00 0.00 0.00 0.00 0.00 0.00 0.00 0.00 0.00 0.00 0.00 0.00 0.00 0.00 0.00 0.00 0.00 0.00 0.00 0.00 0.00 0.00 0.00 0.00 0.00 0.00 0.00 0.00 0.01 0.09 0.15 0.01 0.00 0.00 0.00 0.00 0.04 0.17 0.03 0.15 0.12 0.05 0.01
0.00 0.00 0.00 0.00 0.00 0.00 0.00 0.00 0.00 0.01 0.01 0.00 0.00 0.00 0.00 0.00 0.00 0.00 0.00 0.00 0.00 0.00 0.00 0.00 0.00 0.00 0.00 0.00 0.00 0.01 0.01 0.00 0.00 0.00 0.00 0.00 0.02 0.05 0.07 0.09 0.08 0.01 0.00
0.00 0.00 0.00 0.00 0.00 0.00 0.00 0.00 0.00 0.03 0.04 0.02 0.00 0.00 0.00 0.00 0.00 0.00 0.00 0.00 0.00 0.00 0.00 0.00 0.00 0.00 0.00 0.00 0.00 0.00 0.00 0.00 0.00 0.00 0.00 0.00 0.02 0.06 0.08 0.03 0.02 0.00 0.00
0.00 0.00 0.00 0.00 0.00 0.00 0.00 0.00 0.00 0.00 0.02 0.03 0.01 0.00 0.00 0.00 0.00 0.00 0.00 0.00 0.00 0.00 0.00 0.00 0.00 0.00 0.00 0.00 0.00 0.00 0.00 0.00 0.00 0.00 0.00 0.00 0.02 0.08 0.10 0.02 0.00 0.00 0.00
0.00 0.00 0.00 0.00 0.00 0.00 0.00 0.00 0.00 0.00 0.00 0.00 0.00 0.00 0.00 0.00 0.00 0.01 0.00 0.00 0.00 0.00 0.00 0.00 0.00 0.00 0.00 0.00 0.00 0.00 0.00 0.00 0.00 0.00 0.00 0.00 0.01 0.06 0.05 0.02 0.00 0.00 0.00
0.00 0.00 0.00 0.00 0.00 0.00 0.00 0.00 0.00 0.00 0.00 0.00 0.00 0.00 0.00 0.00 0.01 0.01 0.01 0.01 0.00 0.01 0.00 0.00 0.00 0.00 0.00 0.00 0.00 0.00 0.00 0.00 0.00 0.00 0.00 0.00 0.00 0.04 0.10 0.04 0.01 0.00 0.00
0.00 0.00 0.00 0.00 0.00 0.00 0.00 0.00 0.00 0.00 0.00 0.00 0.00 0.00 0.00 0.00 0.01 0.02 0.02 0.01 0.01 0.01 0.01 0.01 0.01 0.00 0.00 0.00 0.00 0.01 0.00 0.00 0.00 0.00 0.00 0.00 0.00 0.04 0.11 0.03 0.01 0.00 0.00
0.00 0.00 0.00 0.00 0.00 0.00 0.00 0.00 0.00 0.00 0.00 0.00 0.00 0.00 0.00 0.00 0.01 0.02 0.03 0.02 0.01 0.01 0.02 0.02 0.01 0.01 0.00 0.00 0.00 0.01 0.02 0.01 0.00 0.00 0.00 0.00 0.00 0.01 0.06 0.05 0.01 0.00 0.00
0.00 0.00 0.00 0.00 0.00 0.00 0.00 0.00 0.00 0.00 0.00 0.00 0.00 0.00 0.00 0.00 0.00 0.00 0.02 0.03 0.06 0.02 0.04 0.06 0.03 0.01 0.00 0.01 0.01 0.01 0.05 0.07 0.02 0.00 0.00 0.00 0.00 0.03 0.01 0.01 0.00 0.00 0.00
0.00 0.00 0.00 0.00 0.00 0.00 0.00 0.00 0.00 0.00 0.00 0.00 0.00 0.00 0.00 0.00 0.00 0.00 0.00 0.02 0.09 0.06 0.05 0.07 0.02 0.03 0.02 0.01 0.01 0.01 0.02 0.05 0.07 0.02 0.01 0.00 0.00 0.03 0.04 0.04 0.02 0.00 0.00
0.00 0.00 0.00 0.00 0.00 0.00 0.00 0.00 0.00 0.00 0.00 0.00 0.00 0.00 0.00 0.00 0.00 0.00 0.00 0.00 0.03 0.09 0.09 0.09 0.10 0.04 0.02 0.03 0.03 0.01 0.01 0.03 0.05 0.03 0.01 0.01 0.00 0.00 0.03 0.05 0.05 0.01 0.00
0.00 0.00 0.00 0.00 0.00 0.00 0.00 0.00 0.00 0.00 0.00 0.00 0.00 0.00 0.00 0.00 0.00 0.00 0.00 0.00 0.00 0.05 0.16 0.12 0.08 0.03 0.02 0.05 0.03 0.01 0.01 0.02 0.02 0.04 0.03 0.02 0.01 0.00 0.00 0.03 0.05 0.03 0.03
0.00 0.00 0.00 0.00 0.00 0.00 0.00 0.00 0.00 0.00 0.00 0.00 0.00 0.00 0.00 0.00 0.00 0.00 0.00 0.00 0.00 0.01 0.09 0.15 0.13 0.08 0.03 0.02 0.05 0.01 0.01 0.01 0.01 0.02 0.03 0.02 0.00 0.00 0.00 0.01 0.01 0.01 0.02
0.00 0.00 0.00 0.00 0.00 0.00 0.00 0.00 0.00 0.00 0.00 0.00 0.00 0.00 0.00 0.00 0.00 0.00 0.00 0.00 0.00 0.00 0.02 0.10 0.14 0.12 0.13 0.02 0.05 0.03 0.00 0.00 0.00 0.00 0.00 0.01 0.00 0.00 0.00 0.00 0.00 0.00 0.01
0.00 0.00 0.00 0.00 0.00 0.00 0.00 0.00 0.00 0.00 0.00 0.00 0.00 0.00 0.00 0.00 0.00 0.00 0.00 0.00 0.00 0.00 0.00 0.03 0.11 0.14 0.16 0.07 0.01 0.01 0.00 0.00 0.00 0.00 0.00 0.00 0.00 0.00 0.00 0.00 0.00 0.00 0.00
0.00 0.00 0.00 0.00 0.00 0.00 0.00 0.00 0.00 0.00 0.00 0.00 0.00 0.00 0.00 0.00 0.00 0.00 0.00 0.00 0.00 0.00 0.00 0.01 0.05 0.12 0.13 0.15 0.07 0.04 0.01 0.00 0.00 0.00 0.00 0.00 0.00 0.00 0.00 0.00 0.00 0.00 0.00
MSLP
1010.49 1010.55 1010.69 1010.78 1010.66 1010.62 1010.77 1010.64 1010.42 1010.47 1010.46 1010.59 1010.86 1011.08 1011.11 1011.18 1011.36 1011.53 1011.71 1011.95 1012.10 1012.25 1012.26 1012.38 1012.53 1012.65 1012.70 1012.81 1012.87 1012.80 1013.04 1013.40 1013.53 1013.58 1013.64 1013.62 1013.79 1013.92 1014.10 1014.06 1014.03 1014.11 1014.07
1010.31 1010.59 1010.81 1010.95 1010.88 1010.79 1010.96 1011.01 1010.79 1010.83 1010.84 1010.92 1011.11 1011.29 1011.47 1011.49 1011.56 1011.69 1011.88 1012.07 1012.21 1012.44 1012.52 1012.41 1012.62 1012.67 1012.75 1013.07 1013.02 1013.11 1013.26 1013.61 1013.77 1013.68 1013.69 1013.89 1014.02 1014.10 1014.28 1014.43 1014.36 1014.36 1014.34
1010.78 1010.96 1011.23 1011.34 1011.17 1011.00 1011.22 1011.34 1011.21 1011.09 1011.17 1011.17 1011.40 1011.45 1011.63 1011.70 1011.77 1011.83 1011.94 1012.13 1012.22 1012.43 1012.73 1012.71 1012.75 1012.72 1012.74 1013.03 1013.22 1013.43 1013.48 1013.73 1013.86 1013.76 1013.84 1014.00 1014.22 1014.33 1014.44 1014.61 1014.73 1014.79 1014.69
1011.11 1011.40 1011.39 1011.42 1011.40 1011.31 1011.50 1011.64 1011.67 1011.56 1011.65 1011.64 1011.74 1011.81 1011.92 1011.90 1011.96 1012.00 1012.03 1012.17 1012.29 1012.35 1012.68 1012.94 1012.97 1012.84 1012.93 1013.01 1013.32 1013.47 1013.57 1013.75 1013.94 1014.04 1014.23 1014.24 1014.40 1014.63 1014.73 1014.83 1014.90 1015.03 1015.14
1011.40 1011.57 1011.65 1011.79 1011.74 1011.68 1011.74 1011.91 1012.06 1011.87 1011.96 1011.90 1011.92 1012.03 1012.05 1012.07 1012.16 1012.20 1012.19 1012.33 1012.38 1012.38 1012.50 1012.73 1013.08 1013.08 1013.09 1013.14 1013.49 1013.59 1013.73 1013.95 1014.22 1014.36 1014.53 1014.42 1014.57 1014.83 1014.99 1015.09 1015.12 1015.27 1015.44
1011.64 1011.74 1012.01 1011.85 1012.11 1012.01 1012.12 1012.09 1012.05 1011.97 1011.99 1012.01 1012.11 1012.29 1012.38 1012.49 1012.56 1012.52 1012.50 1012.48 1012.52 1012.47 1012.53 1012.64 1012.90 1013.16 1013.29 1013.31 1013.52 1013.70 1013.80 1014.12 1014.37 1014.62 1014.80 1014.71 1014.71 1014.92 1015.10 1015.26 1015.30 1015.36 1015.57
1012.49 1012.41 1012.23 1012.13 1012.22 1012.24 1012.34 1012.33 1012.28 1012.36 1012.46 1012.47 1012.36 1012.36 1012.39 1012.43 1012.62 1012.80 1012.87 1012.75 1012.69 1012.69 1012.63 1012.65 1012.72 1013.03 1013.34 1013.49 1013.53 1013.75 1014.00 1014.18 1014.41 1014.65 1014.77 1014.61 1014.71 1014.81 1015.05 1015.30 1015.30 1015.45 1015.63
1013.22 1013.08 1013.05 1013.05 1012.98 1012.82 1012.69 1012.66 1012.73 1012.69 1012.81 1012.85 1012.85 1012.77 1012.64 1012.55 1012.49 1012.52 1012.65 1012.77 1012.78 1012.82 1012.82 1012.76 1012.75 1012.89 1013.09 1013.45 1013.57 1013.85 1013.95 1014.27 1014.50 1014.65 1014.62 1014.60 1014.43 1014.56 1014.82 1015.23 1015.45 1015.54 1015.75
1014.18 1014.01 1013.82 1013.63 1013.60 1013.58 1013.54 1013.39 1013.08 1012.84 1012.70 1012.82 1012.98 1013.03 1012.92 1012.84 1012.80 1012.68 1012.70 1012.77 1012.80 1012.82 1012.87 1012.91 1012.97 1012.94 1013.01 1013.39 1013.83 1013.84 1014.10 1014.26 1014.46 1014.67 1014.65 1014.65 1014.53 1014.29 1014.64 1015.28 1015.49 1015.56 1016.13
1015.06 1015.05 1015.07 1014.83 1014.64 1014.44 1014.14 1013.89 1013.74 1013.63 1013.45 1013.15 1012.77 1012.79 1012.93 1012.94 1012.85 1012.86 1012.74 1012.70 1012.82 1012.79 1012.81 1012.90 1013.07 1013.14 1013.07 1013.33 1013.68 1013.98 1014.05 1014.36 1014.38 1014.58 1014.75 1014.74 1014.36 1014.34 1014.53 1015.05 1015.53 1015.74 1016.20
1016.00 1016.15 1015.94 1015.83 1015.75 1015.24 1014.77 1014.75 1014.37 1014.09 1013.92 1013.74 1013.57 1013.40 1013.08 1012.81 1012.95 1012.91 1012.86 1012.74 1012.72 1012.70 1012.66 1012.77 1012.98 1013.11 1013.20 1013.40 1013.64 1013.93 1014.20 1014.25 1014.35 1014.62 1014.77 1014.62 1014.37 1014.31 1014.48 1015.05 1015.49 1015.81 1016.22
1017.04 1017.10 1016.97 1016.70 1016.44 1016.02 1015.57 1015.55 1015.18 1014.70 1014.51 1014.18 1013.80 1013.62 1013.56 1013.31 1012.88 1012.76 1012.83 1012.78 1012.58 1012.61 1012.60 1012.59 1012.80 1013.03 1013.24 1013.44 1013.64 1013.81 1013.86 1014.11 1014.36 1014.46 1014.52 1014.58 1014.27 1014.14 1014.54 1015.13 1015.37 1015.84 1016.14
1017.98 1017.69 1017.43 1017.28 1016.98 1016.61 1016.31 1016.25 1016.01 1015.66 1015.11 1014.59 1014.31 1013.85 1013.48 1013.22 1013.10 1012.92 1012.65 1012.63 1012.71 1012.60 1012.67 1012.56 1012.66 1012.93 1013.12 1013.38 1013.40 1013.63 1013.61 1013.85 1014.05 1014.23 1014.23 1014.41 1014.30 1014.05 1014.21 1014.78 1015.30 1015.73 1016.05
1018.00 1018.09 1017.97 1017.55 1017.29 1017.13 1016.84 1016.66 1016.52 1016.18 1015.71 1015.29 1014.86 1014.34 1013.83 1013.14 1012.85 1012.74 1012.54 1012.39 1012.52 1012.59 1012.60 1012.61 1012.56 1012.61 1012.87 1013.13 1013.14 1013.25 1013.41 1013.56 1013.68 1013.92 1014.18 1014.35 1014.03 1013.96 1014.10 1013.99 1015.22 1015.60 1015.94
1018.22 1018.30 1018.01 1017.83 1017.68 1017.45 1017.19 1017.05 1016.71 1016.42 1016.06 1015.69 1015.16 1014.67 1014.32 1013.82 1013.08 1012.55 1012.33 1012.05 1011.90 1012.04 1012.38 1012.51 1012.37 1012.50 1012.60 1012.73 1012.91 1012.91 1013.00 1013.26 1013.39 1013.59 1013.99 1014.20 1013.99 1013.90 1013.89 1014.34 1014.88 1015.40 1015.86
1018.77 1018.77 1018.59 1018.41 1018.39 1018.11 1017.70 1017.37 1017.12 1016.71 1016.34 1015.93 1015.53 1015.08 1014.59 1014.13 1013.44 1012.72 1012.25 1011.92 1011.60 1011.35 1011.50 1012.00 1012.22 1012.20 1012.26 1012.29 1012.60 1012.60 1012.67 1012.81 1013.05 1013.37 1013.72 1013.89 1013.93 1013.89 1013.63 1014.10 1014.79 1015.24 1015.72
1019.06 1019.11 1018.73 1018.45 1018.39 1018.28 1018.13 1017.78 1017.32 1016.91 1016.51 1016.10 1015.60 1015.18 1014.88 1014.47 1013.86 1013.05 1012.53 1011.65 1011.24 1011.01 1010.81 1011.14 1011.68 1011.91 1012.19 1012.18 1012.17 1012.41 1012.38 1012.39 1012.67 1013.06 1013.41 1013.69 1013.80 1013.91 1013.88 1014.17 1014.69 1015.06 1015.50
1019.35 1018.84 1018.67 1018.52 1018.34 1018.39 1018.31 1018.03 1017.49 1016.99 1016.69 1016.30 1015.75 1015.28 1014.88 1014.53 1014.25 1013.59 1012.81 1011.77 1010.66 1010.59 1010.59 1010.59 1010.93 1011.43 1011.75 1011.96 1011.80 1011.91 1012.11 1012.11 1012.11 1012.50 1013.05 1013.33 1013.59 1013.71 1013.91 1014.21 1014.69 1014.95 1015.38
1019.27 1018.73 1018.52 1018.70 1018.65 1018.58 1018.26 1017.94 1017.54 1017.04 1016.62 1016.13 1015.73 1015.31 1014.84 1014.43 1014.01 1013.69 1013.08 1012.08 1011.10 1010.24 1010.07 1010.02 1010.22 1010.36 1010.85 1011.37 1011.43 1011.40 1011.75 1011.84 1011.86 1012.04 1012.48 1012.77 1013.02 1013.42 1013.68 1013.93 1014.27 1014.74 1015.19
1019.45 1019.25 1019.19 1019.30 1019.32 1019.04 1018.43 1017.80 1017.31 1016.78 1016.34 1016.02 1015.52 1014.98 1014.70 1014.18 1013.72 1013.32 1012.78 1012.15 1011.37 1010.52 1009.45 1009.41 1009.39 1009.62 1009.84 1010.27 1010.74 1010.91 1011.15 1011.49 1011.66 1011.85 1012.05 1012.29 1012.61 1012.93 1013.38 1013.73 1014.12 1014.52 1014.79
1019.76 1019.58 1019.89 1019.81 1019.38 1019.12 1018.55 1017.66 1016.92 1016.51 1015.83 1015.58 1015.13 1014.58 1014.22 1013.71 1013.29 1012.82 1012.29 1011.60 1011.18 1010.31 1009.23 1008.80 1008.79 1008.84 1009.17 1009.39 1010.36 1010.89 1011.09 1011.21 1011.34 1011.62 1011.78 1012.17 1012.43 1012.60 1012.90 1013.33 1013.83 1014.16 1014.60
1020.59 1020.25 1019.97 1019.51 1019.32 1019.33 1018.76 1018.36 1017.92 1016.93 1015.83 1015.37 1014.74 1014.35 1013.98 1013.46 1012.80 1012.38 1011.88 1011.37 1010.76 1009.97 1009.11 1008.03 1008.08 1008.02 1008.03 1008.56 1009.25 1010.14 1010.68 1011.19 1010.91 1011.03 1011.31 1011.60 1012.08 1012.29 1012.65 1012.95 1013.42 1013.74 1014.11
1020.52 1020.35 1020.12 1019.75 1019.42 1019.33 1018.84 1018.33 1017.38 1016.46 1015.60 1014.82 1014.36 1013.93 1013.65 1013.18 1012.46 1011.89 1011.31 1010.83 1010.31 1009.70 1008.81 1007.92 1006.86 1007.19 1007.00 1007.25 1007.70 1008.22 1009.45 1009.35 1009.93 1010.40 1010.58 1010.90 1011.26 1011.70 1012.14 1012.34 1012.83 1013.25 1013.75
1021.11 1020.88 1020.51 1019.72 1019.61 1019.32 1018.92 1018.49 1017.43 1016.40 1015.48 1014.91 1014.24 1013.51 1013.05 1012.48 1011.73 1011.22 1010.53 1010.10 1009.63 1009.11 1008.12 1007.40 1006.37 1005.86 1006.04 1005.90 1007.13 1007.30 1007.26 1007.81 1009.05 1009.87 1009.89 1010.19 1010.53 1010.92 1011.28 1011.77 1012.24 1012.65 1013.21
1021.10 1020.78 1020.32 1020.30 1019.82 1019.33 1018.97 1018.28 1017.25 1016.17 1015.60 1014.74 1014.06 1013.09 1012.56 1011.59 1010.93 1010.20 1009.73 1009.16 1008.57 1008.20 1007.51 1006.60 1005.64 1004.81 1004.72 1004.66 1004.84 1005.75 1006.94 1007.36 1007.41 1008.37 1008.98 1009.41 1009.84 1010.01 1010.50 1010.91 1011.35 1011.77 1012.45
1021.30 1020.96 1020.89 1020.89 1020.08 1019.29 1018.48 1017.59 1016.57 1015.88 1015.56 1014.68 1013.85 1012.88 1011.94 1011.03 1010.19 1009.45 1008.75 1008.14 1007.45 1006.93 1006.64 1005.81 1005.02 1003.96 1003.64 1003.53 1003.62 1004.08 1004.80 1005.79 1006.33 1006.91 1007.89 1008.30 1008.17 1008.70 1009.52 1010.08 1010.56 1011.05 1011.50
Thickness
5767 5767 5764 5762 5761 5761 5759 5759 5759 5757 5755 5752 5748 5744 5741 5738 5735 5732 5729 5726 5725 5723 5722 5720 5719 5717 5716 5713 5711 5710 5707 5703 5700 5699 5698 5696 5693 5690 5686 5687 5687 5686 5686
5768 5764 5762 5759 5758 5758 5756 5754 5755 5753 5751 5748 5744 5741 5737 5735 5732 5729 5725 5722 5721 5719 5718 5718 5715 5714 5713 5708 5708 5706 5704 5699 5696 5696 5694 5691 5688 5685 5682 5681 5682 5681 5681
5760 5757 5754 5753 5753 5754 5751 5749 5749 5748 5746 5744 5740 5738 5735 5731 5728 5726 5723 5720 5717 5715 5714 5713 5712 5711 5710 5706 5703 5701 5700 5696 5692 5692 5689 5687 5683 5679 5677 5677 5676 5676 5675
5754 5750 5750 5749 5748 5749 5747 5744 5742 5741 5739 5738 5735 5733 5730 5729 5726 5723 5721 5717 5715 5713 5710 5709 5708 5708 5706 5705 5700 5698 5696 5692 5691 5687 5685 5684 5679 5674 5672 5672 5672 5671 5670
5750 5745 5744 5742 5742 5742 5740 5738 5735 5736 5734 5733 5731 5729 5727 5726 5723 5720 5719 5715 5712 5711 5709 5708 5705 5704 5703 5702 5697 5694 5692 5689 5686 5682 5681 5680 5676 5671 5668 5668 5668 5667 5665
5743 5739 5737 5738 5735 5736 5734 5734 5734 5734 5732 5730 5727 5724 5721 5719 5717 5715 5714 5712 5710 5708 5706 5705 5703 5701 5699 5698 5695 5692 5690 5685 5683 5680 5677 5675 5673 5669 5667 5665 5666 5665 5664
5730 5729 5729 5731 5730 5730 5728 5727 5727 5725 5723 5722 5722 5720 5719 5717 5713 5710 5707 5707 5706 5704 5703 5702 5701 5698 5696 5694 5693 5690 5686 5683 5680 5678 5674 5674 5672 5668 5665 5665 5666 5665 5663
5722 5722 5721 5719 5719 5719 5720 5720 5718 5717 5715 5714 5714 5713 5713 5713 5712 5710 5708 5705 5703 5700 5699 5698 5698 5697 5695 5691 5690 5686 5684 5679 5678 5676 5675 5674 5674 5671 5667 5664 5663 5663 5663
5712 5711 5711 5712 5711 5711 5710 5710 5711 5712 5713 5711 5709 5707 5707 5707 5706 5705 5704 5701 5699 5698 5696 5694 5693 5693 5692 5689 5685 5683 5680 5679 5676 5674 5673 5673 5673 5673 5670 5663 5662 5662 5658
5702 5699 5697 5698 5698 5698 5700 5700 5701 5701 5702 5704 5706 5705 5703 5702 5701 5700 5699 5698 5695 5694 5693 5691 5689 5687 5687 5686 5682 5679 5678 5676 5675 5672 5670 5668 5671 5670 5670 5665 5659 5660 5656
5689 5686 5685 5684 5684 5685 5687 5687 5690 5691 5691 5693 5694 5695 5697 5699 5696 5695 5695 5694 5692 5691 5691 5689 5686 5684 5682 5681 5679 5677 5674 5674 5673 5670 5667 5667 5668 5668 5667 5663 5658 5657 5656
5675 5673 5674 5672 5670 5673 5675 5675 5677 5680 5680 5683 5685 5685 5685 5687 5691 5691 5690 5689 5689 5688 5686 5686 5683 5681 5679 5677 5675 5673 5672 5672 5670 5669 5667 5665 5666 5665 5663 5660 5659 5656 5655
5659 5659 5659 5661 5663 5665 5665 5664 5664 5666 5669 5672 5674 5677 5678 5680 5681 5682 5685 5685 5683 5683 5682 5682 5680 5677 5674 5673 5673 5671 5671 5669 5668 5667 5666 5663 5661 5661 5662 5660 5658 5655 5653
5651 5648 5648 5652 5654 5655 5656 5655 5655 5655 5657 5660 5662 5665 5669 5673 5675 5676 5678 5679 5679 5677 5677 5676 5676 5674 5671 5670 5671 5670 5669 5667 5668 5665 5662 5659 5662 5662 5661 5658 5654 5652 5651
5641 5640 5642 5643 5644 5645 5647 5647 5648 5648 5649 5650 5652 5655 5657 5661 5666 5668 5671 5673 5676 5675 5672 5671 5672 5670 5669 5667 5668 5670 5668 5665 5666 5665 5661 5659 5660 5660 5661 5657 5654 5651 5648
5634 5633 5634 5634 5633 5634 5636 5638 5638 5640 5641 5642 5643 5645 5646 5650 5654 5660 5665 5668 5670 5673 5672 5667 5667 5667 5667 5666 5665 5667 5667 5665 5664 5662 5660 5657 5657 5658 5661 5657 5651 5649 5645
5627 5627 5629 5630 5628 5627 5626 5626 5628 5630 5632 5634 5636 5636 5637 5638 5642 5649 5653 5661 5665 5666 5668 5666 5664 5662 5661 5661 5662 5662 5663 5663 5661 5660 5657 5654 5655 5654 5655 5652 5648 5647 5644
5619 5621 5621 5620 5620 5618 5617 5617 5619 5619 5620 5621 5625 5627 5628 5629 5630 5635 5641 5650 5658 5660 5660 5662 5661 5659 5657 5655 5657 5659 5660 5661 5661 5659 5655 5653 5652 5651 5650 5648 5644 5643 5642
5610 5613 5613 5610 5608 5607 5607 5609 5610 5612 5612 5613 5615 5616 5617 5618 5621 5623 5629 5638 5645 5653 5656 5657 5656 5658 5657 5652 5653 5654 5655 5656 5658 5656 5655 5653 5652 5649 5647 5645 5643 5641 5639
5601 5600 5599 5595 5593 5594 5598 5601 5602 5604 5604 5604 5606 5608 5608 5609 5609 5613 5619 5625 5631 5640 5651 5651 5654 5654 5654 5653 5650 5651 5651 5651 5652 5653 5653 5652 5651 5649 5645 5643 5642 5639 5638
5590 5589 5583 5582 5584 5585 5588 5593 5596 5596 5598 5596 5595 5597 5597 5599 5600 5600 5606 5615 5619 5627 5639 5645 5646 5648 5647 5651 5641 5640 5642 5645 5646 5648 5649 5648 5647 5646 5645 5642 5639 5636 5635
5574 5574 5574 5576 5576 5574 5577 5577 5577 5582 5587 5584 5584 5581 5577 5576 5579 5582 5589 5595 5605 5614 5623 5637 5639 5643 5647 5645 5639 5635 5634 5634 5641 5645 5646 5647 5644 5642 5641 5640 5637 5635 5633
5566 5564 5564 5565 5566 5564 5565 5565 5569 5572 5574 5573 5569 5564 5554 5549 5551 5555 5564 5574 5584 5595 5608 5619 5634 5634 5640 5644 5642 5639 5630 5639 5642 5641 5644 5644 5644 5643 5641 5639 5637 5634 5630
5552 5551 5551 5555 5553 5552 5552 5552 5556 5560 5561 5556 5552 5545 5541 5539 5541 5543 5548 5553 5563 5573 5591 5604 5619 5629 5633 5639 5632 5637 5643 5643 5635 5634 5639 5642 5642 5643 5642 5640 5637 5633 5630
5542 5541 5542 5539 5540 5540 5539 5539 5544 5547 5544 5540 5535 5532 5530 5533 5534 5537 5538 5543 5551 5559 5571 5586 5604 5618 5627 5633 5640 5640 5632 5637 5642 5635 5637 5638 5638 5642 5641 5640 5638 5634 5630
5528 5528 5525 5522 5526 5529 5530 5531 5535 5535 5529 5527 5520 5519 5521 5526 5529 5530 5534 5537 5542 5548 5555 5570 5586 5604 5617 5631 5637 5640 5639 5639 5642 5640 5636 5640 5644 5646 5641 5639 5637 5636 5633